Location: Bauen
(46.9356°N, 8.5784°E)
Time: 09:48:47
(UTC+00:00)

Cosmos 2219 Rocket - Pass Details

Date: 18 February 2020
Orbit: 829 x 846 km, 71.0° (Epoch: 08 April)

Event Time Altitude Azimuth Distance (km) Brightness Sun altitude
Exits shadow 03:58:21 16° 338° (NNW) 2,076 4.1 -25.8°
Drops below altitude 10° 04:00:38 10° 1° (N) 2,478 4.7 -25.5°
Sets 04:03:59 0° 21° (NNE) 3,415 5.8 -24.9°
